COSMOS 2436 (723) (32395 NORAD) Tracking and Keplerian Element Data

This shows tracking and keplerian element data for the satellite.

Feedback or suggestion? Click here.




ElementValue
Catalog32395
NameCOSMOS 2436 (723)
Epoch Orbit8220
Epoch Day202.68758196
Epoch Year2018
RAAN290.3797
Inclination64.8862
Eccentricity0.0013768
Argument of Perigee0.3634
Mean Anonmoly29.3161
Mean Motion2.13104418
Decay Rate-5.3E-07
L11 32395U 07065C 18202.68758196 -.00000053 00000-0 10000-3 0 9996
L22 32395 64.8862 290.3797 0013768 0.3634 29.3161 2.13104418 82204

Live tracking and technical data element details for COSMOS 2436 (723) (NORAD 32395). COSMOS 2436 (723) can be tracked NOW for your location showing map with azimuth and elevation plus other details from your city location.

Track the satellite on the map from your city or location and see movement details for azimuth, elevation, latitude, longitude, range, height, and movement on the map or in text.







IsCatalogInMostPopularTable: catalog: 32395, numindb: 39
Update: records affected: 1



GetName: 32395 COSMOS 2436 (723)

Hit Count: updated at: Mon, 23 Jul 2018 08:01:01 GMT